TimeEDT,TemperatureF,Dew PointF,Humidity,Sea Level PressureIn,VisibilityMPH,Wind Direction,Wind SpeedMPH,Gust SpeedMPH,PrecipitationIn,Events,Conditions,WindDirDegrees,DateUTC
12:53 AM,66.0,64.0,93,30.06,4.0,Calm,Calm,-,N/A,,Clear,0,2013-07-03 04:53:00
1:26 AM,64.4,62.6,94,30.06,2.5,Calm,Calm,-,N/A,,Clear,0,2013-07-03 05:26:00
1:33 AM,64.4,62.6,94,30.06,3.0,Calm,Calm,-,N/A,,Clear,0,2013-07-03 05:33:00
1:48 AM,64.4,62.6,94,30.06,2.5,Calm,Calm,-,N/A,,Clear,0,2013-07-03 05:48:00
1:53 AM,64.9,63.0,93,30.05,3.0,Calm,Calm,-,N/A,,Clear,0,2013-07-03 05:53:00
2:53 AM,64.0,62.1,93,30.04,3.0,Calm,Calm,-,N/A,,Clear,0,2013-07-03 06:53:00
3:00 AM,64.4,62.6,94,30.05,2.5,Calm,Calm,-,N/A,,Clear,0,2013-07-03 07:00:00
3:07 AM,64.4,62.6,94,30.05,3.0,Calm,Calm,-,N/A,,Clear,0,2013-07-03 07:07:00
3:28 AM,64.4,62.6,94,30.06,2.5,Calm,Calm,-,N/A,,Clear,0,2013-07-03 07:28:00
3:53 AM,64.0,62.1,93,30.04,1.8,Calm,Calm,-,N/A,,Clear,0,2013-07-03 07:53:00
4:02 AM,64.4,62.6,94,30.06,2.0,Calm,Calm,-,N/A,,Partly Cloudy,0,2013-07-03 08:02:00
4:16 AM,64.4,62.6,94,30.06,3.0,Calm,Calm,-,N/A,,Scattered Clouds,0,2013-07-03 08:16:00
4:24 AM,64.4,62.6,94,30.06,2.5,Calm,Calm,-,N/A,,Scattered Clouds,0,2013-07-03 08:24:00
4:53 AM,64.0,62.1,93,30.05,2.5,Calm,Calm,-,N/A,,Clear,0,2013-07-03 08:53:00
5:39 AM,64.4,62.6,94,30.07,3.0,Calm,Calm,-,N/A,,Mostly Cloudy,0,2013-07-03 09:39:00
5:53 AM,64.9,63.0,93,30.07,3.0,Calm,Calm,-,N/A,,Overcast,0,2013-07-03 09:53:00
6:16 AM,64.4,62.6,94,30.08,2.5,Calm,Calm,-,N/A,,Mostly Cloudy,0,2013-07-03 10:16:00
6:53 AM,66.0,64.0,93,30.09,2.5,Calm,Calm,-,N/A,,Mostly Cloudy,0,2013-07-03 10:53:00
7:10 AM,66.2,64.4,94,30.10,3.0,Calm,Calm,-,N/A,,Overcast,0,2013-07-03 11:10:00
7:53 AM,70.0,66.9,90,30.10,4.0,South,4.6,-,N/A,,Mostly Cloudy,190,2013-07-03 11:53:00
8:53 AM,73.9,69.1,85,30.11,5.0,South,9.2,-,N/A,,Haze,170,2013-07-03 12:53:00
9:53 AM,78.1,70.0,76,30.12,9.0,South,8.1,-,N/A,,Clear,190,2013-07-03 13:53:00
10:53 AM,80.1,71.1,74,30.12,10.0,SW,6.9,-,0.01,,Clear,230,2013-07-03 14:53:00
11:53 AM,81.0,69.1,67,30.12,10.0,Variable,5.8,-,N/A,,Scattered Clouds,0,2013-07-03 15:53:00
12:06 PM,82.4,69.8,66,30.13,10.0,South,9.2,-,N/A,,Mostly Cloudy,190,2013-07-03 16:06:00
12:14 PM,82.4,69.8,66,30.13,10.0,SW,12.7,16.1,N/A,,Mostly Cloudy,220,2013-07-03 16:14:00
12:53 PM,82.9,69.1,63,30.12,10.0,SW,8.1,-,N/A,,Mostly Cloudy,220,2013-07-03 16:53:00
1:53 PM,81.0,68.0,65,30.11,10.0,WSW,8.1,-,0.00,Rain,Light Rain,250,2013-07-03 17:53:00
2:53 PM,84.0,69.1,61,30.11,10.0,WSW,9.2,-,0.00,,Mostly Cloudy,250,2013-07-03 18:53:00
3:53 PM,82.9,69.1,63,30.09,10.0,SW,4.6,-,0.03,,Scattered Clouds,230,2013-07-03 19:53:00
4:51 PM,80.6,66.2,61,30.12,9.0,South,27.6,35.7,N/A,Thunderstorm,Thunderstorm,170,2013-07-03 20:51:00
4:53 PM,77.0,66.9,71,30.09,6.0,SSE,23.0,35.7,N/A,Thunderstorm,Unknown,160,2013-07-03 20:53:00
5:08 PM,73.4,66.2,78,30.10,10.0,SSE,6.9,-,0.00,Thunderstorm,Mostly Cloudy,150,2013-07-03 21:08:00
5:32 PM,77.0,66.2,69,30.10,10.0,SSW,4.6,-,0.00,,Partly Cloudy,210,2013-07-03 21:32:00
5:53 PM,80.1,68.0,67,30.09,10.0,SSE,6.9,-,0.00,,Clear,160,2013-07-03 21:53:00
6:53 PM,80.1,70.0,71,30.10,10.0,South,4.6,-,0.00,,Partly Cloudy,170,2013-07-03 22:53:00
7:32 PM,80.6,68.0,65,30.11,10.0,Calm,Calm,-,N/A,Thunderstorm,Clear,0,2013-07-03 23:32:00
7:53 PM,78.1,72.0,81,30.10,9.0,East,3.5,-,N/A,,Clear,90,2013-07-03 23:53:00
8:53 PM,75.9,71.1,85,30.10,9.0,Calm,Calm,-,N/A,,Clear,0,2013-07-04 00:53:00
9:53 PM,75.0,71.1,87,30.11,8.0,Calm,Calm,-,N/A,,Clear,0,2013-07-04 01:53:00
10:53 PM,75.0,69.1,82,30.11,10.0,South,5.8,-,0.00,,Mostly Cloudy,180,2013-07-04 02:53:00
11:53 PM,75.0,66.9,76,30.12,10.0,South,10.4,-,N/A,,Mostly Cloudy,180,2013-07-04 03:53:00